Location: Burgberg
(50.1428°N, 11.0671°E)
Time: 10:21:15
(UTC+00:00)

PAYLOAD B - Pass Details

Date: 26 January 2020
Orbit: 850 x 871 km, 99.1° (Epoch: 18 February)

Event Time Altitude Azimuth Distance (km) Brightness Sun altitude
Rises 05:21:59 0° 13° (NNE) 3,473 7.4 -15.3°
Reaches altitude 10° 05:24:24 10° 11° (N) 2,531 6.7 -14.9°
Maximum altitude 05:29:57 64° 291° (WNW) 961 4.2 -14.1°
Drops below altitude 10° 05:35:28 10° 211° (SSW) 2,512 6.5 -13.2°
Sets 05:37:51 0° 208° (SSW) 3,444 7.2 -12.8°
